KSZY Weather Reports


Display with metric or nautical units.
time (UTC)temp
F
wind
direction
speed
MPH
gust
MPH
rain 1hr
in
rain 24hr
in
rain mn
in
humidity
%
barometer
mb
20190617082510 70 0 0.0 0.0 0.00 0.00 0.00 10
20190617080513 72 190 7.0 13.0 0.00 0.00 0.00 9
20190617074541 72 0 6.0 13.0 0.00 0.00 0.00 9
20190617072503 72 200 6.0 0.0 0.00 0.00 0.00 9
20190617070506 73 0 5.0 0.0 0.00 0.00 0.00 8
20190617064506 73 0 5.0 0.0 0.00 0.00 0.00 8
20190617060500 73 0 0.0 0.0 0.00 0.00 0.00 9
20190617054506 73 0 0.0 0.0 0.00 0.00 0.00 9
20190617052527 73 0 5.0 0.0 0.00 0.00 0.00 9
20190617050459 73 0 0.0 0.0 0.00 0.00 0.00 8
20190617044454 73 0 0.0 0.0 0.00 0.00 0.00 8
20190617042508 73 0 0.0 0.0 0.00 0.00 0.00 8
20190617040459 72 0 0.0 0.0 0.00 0.00 0.00 9
20190617034505 72 0 0.0 0.0 0.00 0.00 0.00 9
20190617032540 72 0 0.0 0.0 0.00 0.00 0.00 9
20190617030507 72 0 0.0 0.0 0.00 0.00 0.00 9
20190617024507 72 0 0.0 0.0 0.00 0.00 0.00 9
20190617022500 72 0 0.0 0.0 0.00 0.00 0.00 9
20190617020514 75 0 0.0 0.0 0.00 0.00 0.00 8
20190617014458 75 0 0.0 0.0 0.00 0.00 0.00 8
20190617012518 75 0 0.0 0.0 0.00 0.00 0.00 8
20190617010508 77 0 5.0 0.0 0.00 0.00 0.00 7
20190617002506 79 200 6.0 0.0 0.00 0.00 0.00 7
20190617000507 79 200 6.0 0.0 0.00 0.00 0.00 7
20190616234507 79 200 6.0 0.0 0.00 0.00 0.00 7
20190616232509 79 0 7.0 0.0 0.00 0.00 0.00 7
20190616230530 79 0 7.0 0.0 0.00 0.00 0.00 7
20190616224456 79 170 8.0 0.0 0.00 0.00 0.00 7
20190616222456 79 170 8.0 0.0 0.00 0.00 0.00 7
20190616220457 79 190 7.0 0.0 0.00 0.00 0.00 7
20190616214504 79 190 7.0 0.0 0.00 0.00 0.00 7
20190616212505 79 200 6.0 13.0 0.00 0.00 0.00 7
20190616210507 79 0 6.0 0.0 0.00 0.00 0.00 6
20190616204453 79 0 6.0 0.0 0.00 0.00 0.00 6
20190616202508 82 0 7.0 21.0 0.00 0.00 0.00 5
20190616194504 84 0 7.0 14.0 0.00 0.00 0.00 6
20190616192504 84 0 6.0 0.0 0.00 0.00 0.00 6
20190616190509 86 0 6.0 13.0 0.00 0.00 0.00 6
20190616184503 86 0 6.0 13.0 0.00 0.00 0.00 6
20190616182500 84 230 6.0 0.0 0.00 0.00 0.00 7
20190616180514 84 0 6.0 13.0 0.00 0.00 0.00 6
20190616174459 84 230 7.0 13.0 0.00 0.00 0.00 6
20190616172454 82 240 9.0 16.0 0.00 0.00 0.00 7
20190616170502 82 210 7.0 14.0 0.00 0.00 0.00 7
20190616164459 82 210 7.0 14.0 0.00 0.00 0.00 7
20190616162505 82 220 6.0 15.0 0.00 0.00 0.00 7
20190616160507 81 240 9.0 0.0 0.00 0.00 0.00 7
20190616154508 81 240 9.0 0.0 0.00 0.00 0.00 7
20190616152500 82 0 6.0 13.0 0.00 0.00 0.00 7
20190616150518 81 0 7.0 15.0 0.00 0.00 0.00 7
20190616144458 81 0 7.0 15.0 0.00 0.00 0.00 7
20190616142457 79 230 8.0 16.0 0.00 0.00 0.00 7
20190616140503 79 0 3.0 13.0 0.00 0.00 0.00 8
20190616134459 79 0 3.0 13.0 0.00 0.00 0.00 8
20190616132519 77 220 8.0 15.0 0.00 0.00 0.00 8
20190616130517 77 0 6.0 0.0 0.00 0.00 0.00 8
20190616124543 77 0 6.0 0.0 0.00 0.00 0.00 8
20190616122507 75 0 7.0 0.0 0.00 0.00 0.00 8
20190616120514 73 0 3.0 0.0 0.00 0.00 0.00 8
20190616114525 73 0 3.0 0.0 0.00 0.00 0.00 8
20190616112500 73 190 5.0 0.0 0.00 0.00 0.00 8
20190616110510 73 0 0.0 0.0 0.00 0.00 0.00 8
20190616104510 73 0 0.0 0.0 0.00 0.00 0.00 8
20190616102505 73 0 5.0 0.0 0.00 0.00 0.00 8
20190616100514 73 210 5.0 0.0 0.00 0.00 0.00 8
20190616094500 73 0 7.0 0.0 0.00 0.00 0.00 8
20190616090519 73 0 3.0 0.0 0.00 0.00 0.00 8